#timestamp,LO_Frequency,Hit 
1506103215.2,286046993.9,N
1506103235.0,286046992.0,N
1506103235.9,286046992.0,N
1506103255.8,286046992.6,N
1506103275.6,286046994.2,N
1506103295.4,286046990.6,N
1506103315.3,286046989.6,N
1506103335.1,286046984.5,N
1506103336.0,286046984.5,N
1506103355.8,286046988.8,N
1506103375.7,286046990.4,N
1506103395.5,286046992.1,N
1506103415.3,286046995.7,N
1506103435.2,286046997.6,N
1506103455.9,286046997.9,N
1506103475.7,286046995.0,N
1506103495.6,286046993.3,N
1506103515.4,286046993.5,N
1506103535.2,286046993.5,N
1506103555.0,286046992.5,N
1506103555.9,286046992.5,N
1506103575.8,286046994.0,N
1506103595.6,286046994.9,N
1506103615.4,286046995.9,N
1506103635.3,286046995.0,N
1506103655.1,286046993.3,N
1506103675.8,286046997.5,N
1506103695.7,286046994.6,N
1506103715.5,286046994.0,N
1506103735.3,286046995.6,N
1506103755.2,286046995.4,N
1506103775.9,286046996.8,N
1506103795.7,286047002.8,N
1506103815.6,286047001.8,N
1506103835.4,286047001.8,N
1506103855.2,286046996.5,N
1506103875.0,286046996.6,N
1506103876.0,286046996.6,N
1506103895.8,286046992.3,N
1506103915.6,286046992.9,N
1506103935.5,286046988.9,P
1506103955.3,286046995.3,N
1506103975.1,286046993.8,N
1506103995.8,286046996.4,N
1506104015.7,286046999.5,N
1506104035.5,286046996.5,N
1506104055.3,286047002.7,N
1506104075.2,286047002.7,N
1506104095.9,286047001.6,N
1506104115.7,286047003.2,N
1506104135.6,286047005.8,N
1506104155.4,286047003.6,N
1506104175.2,286047001.5,N
1506104195.1,286047003.2,N
1506104196.0,286047003.2,N
1506104215.8,286047003.3,N
1506104235.6,286047005.5,N
1506104255.5,286047005.2,N
1506104275.3,286047005.9,N
1506104295.1,286047003.3,N
1506104315.8,286047002.9,N
1506104335.7,286047007.5,N
1506104355.5,286047007.0,N
1506104375.3,286047004.6,N
1506104395.2,286047004.5,N
1506104415.9,286047003.8,N
1506104435.7,286047004.4,N
1506104455.6,286047003.1,N
1506104475.4,286047007.1,N
1506104495.2,286047006.9,N
1506104515.1,286047004.6,N
1506104516.0,286047004.6,N
1506104535.8,286047002.7,N
1506104555.6,286046998.4,N
1506104575.5,286046999.1,N
1506104595.3,286047004.3,N
1506104615.1,286047000.8,N
1506104635.8,286046998.4,N
1506104655.7,286046998.0,N
1506104675.5,286046998.1,N
1506104695.3,286047003.8,N
1506104715.2,286047004.8,N
1506104735.9,286047007.2,N
1506104755.7,286047007.1,N
1506104775.6,286047002.4,N
1506104795.4,286046998.6,N
1506104815.2,286047002.8,N
1506104835.1,286047001.8,N
1506104836.0,286047001.8,N
1506104855.8,286047000.4,N
1506104875.6,286047001.7,N
1506104895.5,286047004.0,N
1506104915.3,286047003.3,N
1506104935.1,286047004.7,N
1506104955.9,286047003.8,N
1506104975.7,286047000.5,N
1506104995.5,286047002.7,N
1506105015.3,286047005.3,N
1506105035.2,286047005.0,N
1506105055.0,286047005.9,N
1506105055.9,286047005.9,N
1506105075.7,286047003.0,N
1506105095.6,286047002.9,N
1506105115.4,286047004.9,N
1506105135.2,286047004.6,N
1506105155.1,286047008.6,P
1506105156.0,286047008.6,P
1506105175.8,286047008.7,P
1506105195.7,286047007.6,P
1506105215.5,286046995.4,P
1506105235.3,286046992.8,N
1506105255.2,286046992.4,N
1506105275.9,286046993.9,N
1506105295.7,286046996.7,N
1506105315.5,286046996.7,N
1506105335.4,286046997.7,N
1506105355.2,286047001.5,N
1506105375.0,286047001.8,N
1506105375.9,286047001.8,N
1506105395.8,286046999.6,N
1506105415.6,286046999.5,N
1506105435.4,286047000.5,N
1506105455.3,286046999.7,N
1506105475.1,286046999.2,N
1506105476.0,286046999.2,N
1506105495.8,286046999.3,N
1506105515.7,286047000.6,N
1506105535.5,286047002.0,N
1506105555.3,286047004.0,N
1506105575.1,286047002.2,N
1506105595.9,286047001.5,N
1506105615.7,286047006.0,N
1506105635.5,286047008.8,N
1506105655.4,286047006.4,N
1506105675.2,286047004.0,N
1506105695.0,286047002.9,N
1506105695.9,286047002.9,N
1506105715.8,286047001.3,N
1506105735.6,286046997.1,N
1506105755.4,286046998.3,N
1506105775.3,286046997.0,N
1506105795.5,286046995.6,N
1506105815.3,286046996.4,N
1506105835.1,286046997.8,N
1506105855.9,286046999.3,N
1506105875.7,286047004.4,N
1506105895.5,286047001.5,N
1506105915.3,286047003.5,N
1506105935.2,286047000.9,N
1506105955.0,286046995.1,N
1506105955.9,286046995.1,N
1506105975.7,286046995.0,N
1506105995.6,286046997.0,N
1506106015.4,286046999.4,N
1506106035.2,286046999.6,N
1506106055.1,286047000.5,N
1506106056.0,286047000.5,N
1506106075.8,286046997.2,N
1506106095.6,286046995.3,N
1506106115.5,286046999.5,N
1506106135.3,286046998.5,N
1506106155.1,286047002.0,N
1506106175.9,286047000.3,N
1506106195.7,286047004.1,N
1506106215.5,286047002.1,N
1506106235.3,286047002.8,N
1506106255.2,286047000.4,N
1506106275.0,286046997.3,N
1506106275.9,286046997.3,N
1506106295.7,286046996.8,N
1506106315.6,286047000.1,N
1506106335.4,286047000.7,N
1506106355.2,286046996.9,N
1506106375.1,286047001.0,N
1506106376.0,286047001.0,N
1506106395.8,286047000.9,N
1506106415.6,286047000.9,N
1506106435.5,286047001.3,N
1506106455.3,286047000.5,N
1506106475.1,286047001.8,N
1506106495.9,286047002.2,N
1506106515.7,286047002.4,N
1506106535.5,286046997.8,N
1506106555.4,286046996.3,N
1506106575.2,286046995.9,N
1506106595.0,286046996.0,N
1506106595.9,286046996.0,N
1506106615.8,286046994.0,N
1506106635.6,286047000.0,N
1506106655.4,286046998.2,N
1506106675.2,286046998.3,N
1506106695.1,286046999.1,N
1506106696.0,286046999.1,N
1506106715.8,286046999.4,N
1506106735.6,286047001.1,N
1506106755.5,286047000.4,N
1506106775.3,286047000.1,N
1506106795.1,286047002.4,N
